Airport ICAO


10:26 UTC

2°C

Clear skies


An affordable passengers' Moving Map for your aircraft. Made for the iPad and the iPhone
More information here

LFPT Cormeilles En Vexin


Pontoise FRANCE   VFR CAVOK


METAR LFPT 181000Z AUTO 00000KT CAVOK 02/01 Q1020 0h26min





NOTAMS

OPEN